This demonstration page uses our WeatherBlox Daily Observations layout. Learn more.

36.19886, -115.1175

Hourly Observations for November 19, 2018

Temp ( °F °C ) Dew Point ( °F °C ) Humidity (%) Winds ( mph kmh ) Pressure ( in mb ) Visibility ( mi km ) Precip ( " mm )
12:53 am 00:53 Clear 49 9.4 17 -8.3 28 28 N 8 13 30.21 1023 10 16.09344 0 0
1:53 am 01:53 Clear 45 7.2 20 -6.7 37 37 SSE 5 7 30.21 1023 10 16.09344 0 0
2:53 am 02:53 Clear 44 6.7 18 -7.8 35 35 Calm 30.21 1023 10 16.09344 0 0
3:53 am 03:53 Clear 42 5.6 17 -8.3 36 36 WNW 3 6 30.21 1023 10 16.09344 0 0
4:53 am 04:53 Clear 42 5.6 16 -8.9 35 35 NW 3 6 30.24 1024 10 16.09344 0 0
5:53 am 05:53 Clear 42 5.6 18 -7.8 38 38 Calm 30.24 1024 10 16.09344 0 0
6:53 am 06:53 Sunny 42 5.6 17 -8.3 36 36 NW 8 13 30.24 1024 10 16.09344 0 0
7:53 am 07:53 Sunny 46 7.8 18 -7.8 32 32 SE 5 7 30.27 1025 10 16.09344 0 0
8:53 am 08:53 Sunny 50 10 17 -8.3 27 27 Calm 30.27 1025 10 16.09344 0 0
9:53 am 09:53 Sunny 54 12.2 15 -9.4 21 21 Calm 30.27 1025 10 16.09344 0 0
10:53 am 10:53 Sunny 58 14.4 15 -9.4 18 18 Calm 30.24 1024 10 16.09344 0 0
11:53 am 11:53 Sunny 60 15.6 15 -9.4 17 17 Calm 30.21 1023 10 16.09344 0 0
12:53 pm 12:53 Sunny 61 16.1 13 -10.6 15 15 SSE 3 6 30.18 1022 10 16.09344 0 0
1:53 pm 13:53 Sunny 63 17.2 10 -12.2 12 12 Calm 30.15 1021 10 16.09344 0 0
2:53 pm 14:53 Sunny 63 17.2 10 -12.2 12 12 ESE 5 7 30.15 1021 10 16.09344 0 0
3:53 pm 15:53 Sunny 62 16.7 10 -12.2 13 13 SSW 3 6 30.15 1021 10 16.09344 0 0
4:53 pm 16:53 Clear 59 15 12 -11.1 15 15 Calm 30.15 1021 10 16.09344 0 0
5:53 pm 17:53 Clear 56 13.3 14 -10 19 19 Calm 30.18 1022 10 16.09344 0 0
6:53 pm 18:53 Clear 52 11.1 18 -7.8 26 26 NW 6 9 30.18 1022 10 16.09344 0 0
7:53 pm 19:53 Clear 51 10.6 18 -7.8 27 27 NW 7 11 30.18 1022 10 16.09344 0 0
8:53 pm 20:53 Clear 48 8.9 18 -7.8 30 30 NNW 5 7 30.18 1022 10 16.09344 0 0
9:53 pm 21:53 Clear 47 8.3 18 -7.8 31 31 NW 6 9 30.18 1022 10 16.09344 0 0
10:53 pm 22:53 Clear 46 7.8 18 -7.8 32 32 NW 5 7 30.18 1022 10 16.09344 0 0
11:53 pm 23:53 Clear 47 8.3 17 -8.3 30 30 NNE 3 6 30.15 1021 10 16.09344 0 0

Powered by AerisWeather